Starlink 31083

operational
NORAD ID: 58670 Int'l Des: 2023-211 Owner: SPXS Country: US Constellation: starlink
LEOCIRCULAR

About Starlink 31083

Description loading...

Live Position

Loading 3D Globe...

Upcoming Passes

Altitude History

Altitude vs Time

uPlot chart will show altitude changes over time

Two-Line Element Set

1 58670U 23211D 25308.04924091 .00001583 00000-0 67024-4 0 9992
2 58670 42.9981 74.4781 0000841 279.5220 80.5537 15.27582489103252
Epoch: Nov 4, 2025 • Age: 13 hours

Current Status

Altitude 485.1 km
Velocity 7.62 km/s
Sub-Earth Point -11.91°S, 1.28°E
Launch Date Dec 29, 2023
Age 1.8 years
Type internet

Technical Details

Classification Payload
Mass 730.00 kg
Dry Mass 700.00 kg
Total Mass 730.00 kg
Length 0.30 m
Diameter 4.10 m
Span 29.00 m
Shape Box + pan
Manufacturer SPXS
Bus Type Starlink V2M
Phase Status In Orbit
Owner/State SPXS/US

Large Constellations

Loading constellations...